SALT Weather Reports


Display with metric or nautical units.
time (UTC)temp
F
wind
direction
speed
MPH
gust
MPH
rain 1hr
in
rain 24hr
in
rain mn
in
humidity
%
barometer
mb
20180427083030 51 127 2.0 0.0 0.00 0.00 0.00 37 1006.5
20180427082913 51 127 2.0 0.0 0.00 0.00 0.00 37 1006.5
20180427082013 52 127 3.0 0.0 0.00 0.00 0.00 36 1006.7
20180427081910 52 127 3.0 0.0 0.00 0.00 0.00 36 1006.7
20180427081029 51 143 3.0 0.0 0.00 0.00 0.00 36 1006.9
20180427080907 51 143 3.0 0.0 0.00 0.00 0.00 36 1006.9
20180427080028 52 136 2.0 0.0 0.00 0.00 0.00 35 1007.2
20180427075905 52 136 2.0 0.0 0.00 0.00 0.00 35 1007.2
20180427075012 52 140 3.0 0.0 0.00 0.00 0.00 34 1007.3
20180427074902 52 140 3.0 0.0 0.00 0.00 0.00 34 1007.3
20180427074027 53 157 3.0 0.0 0.00 0.00 0.00 33 1007.5
20180427073858 53 157 3.0 0.0 0.00 0.00 0.00 33 1007.5
20180427073213 52 147 3.0 0.0 0.00 0.00 0.00 32 1007.5
20180427072855 52 147 3.0 0.0 0.00 0.00 0.00 32 1007.5
20180427071852 52 153 2.0 0.0 0.00 0.00 0.00 32 1007.6
20180427071025 53 152 2.0 0.0 0.00 0.00 0.00 31 1007.7
20180427070851 53 152 2.0 0.0 0.00 0.00 0.00 31 1007.7
20180427065847 53 152 2.0 0.0 0.00 0.00 0.00 30 1007.7
20180427065013 53 147 2.0 0.0 0.00 0.00 0.00 30 1007.8
20180427064844 53 147 2.0 0.0 0.00 0.00 0.00 30 1007.8
20180427064059 53 147 2.0 0.0 0.00 0.00 0.00 30 1007.8
20180427063840 53 147 2.0 0.0 0.00 0.00 0.00 30 1007.8
20180427063023 52 147 2.0 0.0 0.00 0.00 0.00 29 1007.9
20180427062837 52 147 2.0 0.0 0.00 0.00 0.00 29 1007.9
20180427062003 53 147 3.0 0.0 0.00 0.00 0.00 28 1007.9
20180427061834 53 147 3.0 0.0 0.00 0.00 0.00 28 1007.9
20180427061022 54 172 3.0 0.0 0.00 0.00 0.00 27 1008.0
20180427060832 54 172 3.0 0.0 0.00 0.00 0.00 27 1008.0
20180427055923 54 167 3.0 0.0 0.00 0.00 0.00 27 1008.0
20180427055829 54 167 3.0 0.0 0.00 0.00 0.00 27 1008.0
20180427055012 54 168 2.0 0.0 0.00 0.00 0.00 27 1008.1
20180427054827 54 168 2.0 0.0 0.00 0.00 0.00 27 1008.1
20180427053822 54 166 3.0 0.0 0.00 0.00 0.00 26 1008.2
20180427052820 54 166 3.0 0.0 0.00 0.00 0.00 26 1008.3
20180427052012 55 166 2.0 0.0 0.00 0.00 0.00 26 1008.5
20180427051817 55 166 2.0 0.0 0.00 0.00 0.00 26 1008.5
20180427050814 55 166 2.0 0.0 0.00 0.00 0.00 25 1008.5
20180427045812 55 166 3.0 0.0 0.00 0.00 0.00 25 1008.7
20180427044809 55 166 3.0 0.0 0.00 0.00 0.00 25 1008.8
20180427043804 55 166 3.0 0.0 0.00 0.00 0.00 23 1008.9
20180427042012 55 166 3.0 0.0 0.00 0.00 0.00 18 1009.0
20180427041801 55 166 3.0 0.0 0.00 0.00 0.00 18 1009.0
20180427040756 55 166 2.0 0.0 0.00 0.00 0.00 20 1009.2
20180427035754 55 166 4.0 0.0 0.00 0.00 0.00 23 1009.1
20180427035012 54 166 2.0 0.0 0.00 0.00 0.00 30 1009.1
20180427034751 54 166 2.0 0.0 0.00 0.00 0.00 30 1009.1
20180427033746 54 166 2.0 0.0 0.00 0.00 0.00 34 1009.2
20180427033013 54 166 2.0 0.0 0.00 0.00 0.00 35 1009.1
20180427032744 54 166 2.0 0.0 0.00 0.00 0.00 35 1009.1
20180427031741 54 166 1.0 0.0 0.00 0.00 0.00 35 1009.1
20180427030739 54 166 2.0 0.0 0.00 0.00 0.00 34 1009.1
20180427030038 54 166 3.0 0.0 0.00 0.00 0.00 35 1009.1
20180427025736 54 166 3.0 0.0 0.00 0.00 0.00 35 1009.1
20180427024733 54 166 3.0 0.0 0.00 0.00 0.00 35 1009.1
20180427023729 55 165 2.0 0.0 0.00 0.00 0.00 34 1009.2
20180427023028 55 165 3.0 0.0 0.00 0.00 0.00 34 1009.2
20180427022726 55 165 3.0 0.0 0.00 0.00 0.00 34 1009.2
20180427022025 56 168 3.0 0.0 0.00 0.00 0.00 33 1009.2
20180427021724 56 168 3.0 0.0 0.00 0.00 0.00 33 1009.2
20180427020723 56 169 2.0 0.0 0.00 0.00 0.00 32 1009.4
20180427020008 58 169 3.0 0.0 0.00 0.00 0.00 31 1009.3
20180427015718 58 169 3.0 0.0 0.00 0.00 0.00 31 1009.3
20180427015008 60 169 2.0 0.0 0.00 0.00 0.00 28 1009.4
20180427014716 60 169 2.0 0.0 0.00 0.00 0.00 28 1009.4
20180427013711 61 175 2.0 0.0 0.00 0.00 0.00 27 1009.4
20180427012800 62 194 3.0 0.0 0.00 0.00 0.00 27 1009.4
20180427012709 62 194 3.0 0.0 0.00 0.00 0.00 27 1009.4
20180427011757 63 182 4.0 0.0 0.00 0.00 0.00 26 1009.6
20180427011706 63 182 4.0 0.0 0.00 0.00 0.00 26 1009.6
20180427010703 64 195 3.0 0.0 0.00 0.00 0.00 25 1009.7
20180427005831 64 193 4.0 0.0 0.00 0.00 0.00 26 1009.8
20180427005701 64 193 4.0 0.0 0.00 0.00 0.00 26 1009.8
20180427004658 64 187 6.0 0.0 0.00 0.00 0.00 24 1009.9
20180427003653 65 183 4.0 0.0 0.00 0.00 0.00 25 1010.0
20180427002946 65 186 4.0 0.0 0.00 0.00 0.00 25 1010.1
20180427002651 65 186 4.0 0.0 0.00 0.00 0.00 25 1010.1
20180427001648 65 156 3.0 0.0 0.00 0.00 0.00 25 1010.2
20180427000723 65 161 4.0 0.0 0.00 0.00 0.00 25 1010.3
20180427000646 65 161 4.0 0.0 0.00 0.00 0.00 25 1010.3
20180426235643 66 174 2.0 0.0 0.00 0.00 0.00 25 1010.3
20180426234640 65 156 4.0 0.0 0.00 0.00 0.00 26 1010.4
20180426233635 65 125 3.0 0.0 0.00 0.00 0.00 26 1010.6
20180426232754 65 132 3.0 0.0 0.00 0.00 0.00 28 1010.8
20180426232633 65 132 3.0 0.0 0.00 0.00 0.00 28 1010.8
20180426231753 64 155 4.0 0.0 0.00 0.00 0.00 28 1010.8
20180426231630 64 155 4.0 0.0 0.00 0.00 0.00 28 1010.8
20180426230628 64 122 5.0 0.0 0.00 0.00 0.00 28 1011.0
20180426225625 64 97 4.0 0.0 0.00 0.00 0.00 28 1011.0
20180426224622 64 137 6.0 0.0 0.00 0.00 0.00 27 1011.1
20180426223617 64 126 5.0 0.0 0.00 0.00 0.00 29 1011.3
20180426222615 64 119 5.0 0.0 0.00 0.00 0.00 30 1011.3
20180426221612 65 104 4.0 0.0 0.00 0.00 0.00 28 1011.3
20180426220644 65 143 5.0 0.0 0.00 0.00 0.00 29 1011.6
20180426220609 65 143 5.0 0.0 0.00 0.00 0.00 29 1011.6
20180426215606 64 127 5.0 0.0 0.00 0.00 0.00 30 1011.7
20180426214604 65 127 4.0 0.0 0.00 0.00 0.00 28 1011.8
20180426213559 64 122 5.0 0.0 0.00 0.00 0.00 29 1011.9
20180426212557 64 173 7.0 0.0 0.00 0.00 0.00 30 1011.9
20180426211554 64 151 5.0 0.0 0.00 0.00 0.00 30 1012.1
20180426210551 63 131 7.0 0.0 0.00 0.00 0.00 30 1012.3
20180426205549 62 161 8.0 0.0 0.00 0.00 0.00 30 1012.3
20180426204654 63 137 8.0 0.0 0.00 0.00 0.00 32 1012.2
20180426204546 63 137 8.0 0.0 0.00 0.00 0.00 32 1012.2
20180426203541 63 112 8.0 0.0 0.00 0.00 0.00 31 1012.3
20180426202539 64 182 7.0 0.0 0.00 0.00 0.00 32 1012.1
20180426201611 63 149 7.0 0.0 0.00 0.00 0.00 30 1012.2
20180426201536 63 149 7.0 0.0 0.00 0.00 0.00 30 1012.2
20180426200533 63 97 8.0 0.0 0.00 0.00 0.00 29 1012.2
20180426195531 63 141 7.0 0.0 0.00 0.00 0.00 28 1012.3
20180426194528 63 148 8.0 0.0 0.00 0.00 0.00 29 1012.3
20180426193524 63 153 7.0 0.0 0.00 0.00 0.00 29 1012.3
20180426192521 63 106 7.0 0.0 0.00 0.00 0.00 29 1012.5
20180426191518 62 122 8.0 0.0 0.00 0.00 0.00 29 1012.6
20180426190516 62 131 8.0 0.0 0.00 0.00 0.00 31 1012.6
20180426185514 62 104 8.0 0.0 0.00 0.00 0.00 31 1012.7
20180426184510 62 141 8.0 0.0 0.00 0.00 0.00 29 1012.8
20180426183506 61 141 9.0 0.0 0.00 0.00 0.00 29 1012.9
20180426182503 61 174 8.0 0.0 0.00 0.00 0.00 27 1013.0
20180426181611 62 125 7.0 0.0 0.00 0.00 0.00 24 1013.0
20180426181500 62 125 7.0 0.0 0.00 0.00 0.00 24 1013.0
20180426180458 62 191 8.0 0.0 0.00 0.00 0.00 24 1013.2
20180426175529 62 130 7.0 0.0 0.00 0.00 0.00 29 1013.1
20180426175455 62 130 7.0 0.0 0.00 0.00 0.00 29 1013.1
20180426174529 61 125 7.0 0.0 0.00 0.00 0.00 31 1013.3
20180426174453 61 125 7.0 0.0 0.00 0.00 0.00 31 1013.3
20180426172528 61 146 8.0 0.0 0.00 0.00 0.00 29 1013.3
20180426172445 61 146 8.0 0.0 0.00 0.00 0.00 29 1013.3
20180426171521 61 130 7.0 0.0 0.00 0.00 0.00 28 1013.1
20180426171443 61 130 7.0 0.0 0.00 0.00 0.00 28 1013.1
20180426170442 61 158 5.0 0.0 0.00 0.00 0.00 34 1012.9
20180426165516 60 133 6.0 0.0 0.00 0.00 0.00 36 1012.9
20180426165437 60 133 6.0 0.0 0.00 0.00 0.00 36 1012.9
20180426164527 59 148 6.0 0.0 0.00 0.00 0.00 35 1013.0
20180426164437 59 148 6.0 0.0 0.00 0.00 0.00 35 1013.0
20180426163431 59 110 5.0 0.0 0.00 0.00 0.00 35 1013.0
20180426162428 58 114 4.0 0.0 0.00 0.00 0.00 36 1012.9
20180426161425 58 131 4.0 0.0 0.00 0.00 0.00 37 1013.0
20180426160422 57 118 6.0 0.0 0.00 0.00 0.00 37 1013.0
20180426155420 56 125 5.0 0.0 0.00 0.00 0.00 36 1013.0
20180426154418 56 156 5.0 0.0 0.00 0.00 0.00 38 1013.1
20180426153525 55 120 4.0 0.0 0.00 0.00 0.00 36 1013.2
20180426153412 55 120 4.0 0.0 0.00 0.00 0.00 36 1013.2
20180426152410 54 151 4.0 0.0 0.00 0.00 0.00 36 1013.2
20180426151407 53 162 3.0 0.0 0.00 0.00 0.00 33 1013.2
20180426150524 52 162 4.0 0.0 0.00 0.00 0.00 33 1013.3
20180426150404 52 162 4.0 0.0 0.00 0.00 0.00 33 1013.3
20180426145402 52 164 4.0 0.0 0.00 0.00 0.00 32 1013.4
20180426144359 51 168 3.0 0.0 0.00 0.00 0.00 30 1013.4
20180426143428 51 170 3.0 0.0 0.00 0.00 0.00 28 1013.5
20180426143354 51 170 3.0 0.0 0.00 0.00 0.00 28 1013.5
20180426142352 50 166 3.0 0.0 0.00 0.00 0.00 25 1013.5
20180426141349 50 168 3.0 0.0 0.00 0.00 0.00 24 1013.6
20180426140523 50 168 2.0 0.0 0.00 0.00 0.00 22 1013.6
20180426140347 50 168 2.0 0.0 0.00 0.00 0.00 22 1013.6
20180426135344 50 168 3.0 0.0 0.00 0.00 0.00 20 1013.7
20180426134342 49 168 2.0 0.0 0.00 0.00 0.00 20 1013.6
20180426133339 47 168 1.0 0.0 0.00 0.00 0.00 21 1013.6
20180426132405 46 168 3.0 0.0 0.00 0.00 0.00 23 1013.6
20180426132334 46 168 3.0 0.0 0.00 0.00 0.00 23 1013.6
20180426131411 45 168 3.0 0.0 0.00 0.00 0.00 24 1013.6
20180426131332 45 168 3.0 0.0 0.00 0.00 0.00 24 1013.6
20180426130329 46 168 3.0 0.0 0.00 0.00 0.00 24 1013.5
20180426125327 45 168 2.0 0.0 0.00 0.00 0.00 25 1013.4
20180426124324 45 168 4.0 0.0 0.00 0.00 0.00 26 1013.4
20180426123318 46 168 3.0 0.0 0.00 0.00 0.00 25 1013.3
20180426122405 46 168 3.0 0.0 0.00 0.00 0.00 26 1013.2
20180426122316 46 168 3.0 0.0 0.00 0.00 0.00 26 1013.2
20180426121313 46 168 2.0 0.0 0.00 0.00 0.00 27 1013.3
20180426120310 46 168 4.0 0.0 0.00 0.00 0.00 31 1013.2
20180426115308 46 168 3.0 0.0 0.00 0.00 0.00 31 1013.2
20180426114305 46 168 2.0 0.0 0.00 0.00 0.00 33 1013.2
20180426113300 46 168 2.0 0.0 0.00 0.00 0.00 36 1013.2
20180426112405 45 169 3.0 0.0 0.00 0.00 0.00 40 1013.1
20180426112258 45 169 3.0 0.0 0.00 0.00 0.00 40 1013.1
20180426111255 45 167 4.0 0.0 0.00 0.00 0.00 39 1013.1
20180426110332 46 164 3.0 0.0 0.00 0.00 0.00 36 1013.1
20180426110253 46 164 3.0 0.0 0.00 0.00 0.00 36 1013.1
20180426105250 46 195 1.0 0.0 0.00 0.00 0.00 41 1013.2
20180426104247 45 220 1.0 0.0 0.00 0.00 0.00 44 1013.2
20180426103243 46 220 1.0 0.0 0.00 0.00 0.00 47 1013.1
20180426102240 46 220 1.0 0.0 0.00 0.00 0.00 48 1013.2
20180426101410 46 220 1.0 0.0 0.00 0.00 0.00 48 1013.2
20180426101237 46 220 1.0 0.0 0.00 0.00 0.00 48 1013.2
20180426100236 46 220 1.0 0.0 0.00 0.00 0.00 47 1013.1
20180426095232 46 220 3.0 0.0 0.00 0.00 0.00 46 1013.2
20180426094230 46 268 1.0 0.0 0.00 0.00 0.00 45 1013.2
20180426093226 46 273 1.0 0.0 0.00 0.00 0.00 50 1013.3
20180426092405 45 273 0.0 0.0 0.00 0.00 0.00 52 1013.3
20180426092223 45 273 0.0 0.0 0.00 0.00 0.00 52 1013.3
20180426091220 45 273 0.0 0.0 0.00 0.00 0.00 52 1013.2
20180426090217 46 273 0.0 0.0 0.00 0.00 0.00 50 1013.3
20180426085215 45 273 0.0 0.0 0.00 0.00 0.00 52 1013.4
20180426084212 45 273 0.0 0.0 0.00 0.00 0.00 52 1013.4